Location: Kaiser
(34.0939°N, 117.4889°W)
Time: 03:05:46
(UTC+00:00)

Uosat 12 SS-18 rocket - Pass Details

Date: 29 October 2020
Orbit: 601 x 1384 km, 64.6° (Epoch: 26 November)

Event Time Altitude Azimuth Distance (km) Brightness Sun altitude
Rises 13:23:49 0° 219° (SW) 3,262 7.5 -9.6°
Reaches altitude 10° 13:26:26 10° 224° (SW) 2,230 6.6 -9.1°
Maximum altitude 13:31:16 52° 301° (WNW) 817 4.3 -8.1°
Drops below altitude 10° 13:35:34 10° 18° (NNE) 1,980 6.7 -7.3°
Sets 13:37:47 0° 24° (NNE) 2,861 7.6 -6.8°
